JCSAT-13                
1 38331U 12023A   19260.85049369 -.00000361  00000-0  00000-0 0  9999
2 38331   0.0326 252.8950 0002834 281.6612 252.1242  1.00271812 26812
VINASAT-2               
1 38332U 12023B   19260.79438282 -.00000333  00000-0  00000+0 0  9997
2 38332   0.0412 297.8938 0001844 239.8078 236.5720  1.00270658 26909
ARIANE 5 R/B            
1 38333U 12023C   19260.73171603  .00000218  00000-0  14199-3 0  9992
2 38333   1.9680 338.8099 7175191 301.8531   7.9438  2.40357665 63141
ARIANE 5 DEB [SYLDA]    
1 38334U 12023D   19260.99228857  .00033387  00000-0  28750-2 0  9995
2 38334   1.4388  64.6249 5575912 109.0117 317.6021  4.73367378 87813